Wind_Speed
8 7 4 4 3 5 8 9 10 12 13 15 15 14 16 18 21 21 21 20 17 12 14 12 7 6 6 5 5 4 4 5 4 3 4 4 4 4 4 2 2 6 6 6 4 3 1 1 1
10 8 6 5 4 6 8 9 9 11 14 14 15 15 14 15 17 18 19 20 18 14 12 13 8 6 8 6 6 5 4 4 5 4 2 3 3 2 3 1 3 5 6 6 4 3 2 3 3
9 9 9 8 7 7 7 8 9 10 12 12 13 13 17 14 13 15 17 18 18 16 11 11 8 8 8 8 7 6 5 5 6 7 5 4 3 3 2 2 4 6 6 5 4 3 3 4 4
13 12 10 9 8 9 8 7 8 8 9 9 10 11 11 14 16 15 17 16 15 16 14 8 7 7 8 7 8 8 7 6 6 7 9 6 7 4 3 3 5 7 7 7 5 4 5 5 5
17 16 14 12 11 10 10 7 8 8 8 8 8 9 10 11 12 14 15 13 12 14 15 14 8 5 7 7 7 8 8 8 7 7 8 9 7 7 5 4 7 8 9 8 8 8 8 7 6
21 20 18 16 14 12 11 9 10 11 9 9 8 7 8 8 8 11 13 12 10 11 13 12 13 11 7 8 9 7 10 11 10 9 9 9 9 8 6 5 7 9 10 11 11 10 10 9 8
17 17 17 16 13 11 11 9 8 9 10 9 10 6 7 7 7 6 6 9 11 11 11 12 13 12 13 9 10 12 9 12 12 11 11 12 12 11 9 7 9 11 13 14 14 13 13 12 11
18 16 16 15 13 10 10 8 7 6 5 7 7 7 6 9 8 9 8 6 6 6 9 10 10 13 11 12 12 13 13 12 14 15 13 14 14 13 14 12 11 14 16 16 17 17 15 14 14
21 19 19 19 16 13 12 11 10 8 6 7 6 6 6 8 10 11 12 12 11 11 11 11 12 10 11 9 11 14 15 15 15 16 17 15 17 16 17 16 15 17 19 20 20 17 16 16 16
23 21 22 21 19 16 13 12 11 10 9 9 8 7 8 9 10 12 12 13 12 14 14 13 14 14 12 10 10 13 15 17 17 18 19 19 20 21 19 20 19 18 20 22 22 20 19 19 20
24 23 25 23 21 19 17 15 13 12 14 16 14 12 11 10 11 12 11 13 14 15 15 15 14 13 15 13 14 13 13 16 18 21 21 22 22 23 23 23 23 22 21 21 22 22 23 22 22
28 26 28 26 25 24 23 19 16 14 17 18 18 17 16 14 12 11 13 14 16 17 17 17 16 17 15 15 16 16 14 14 17 20 24 25 25 25 24 25 26 26 24 22 22 23 24 24 24
32 30 31 31 29 28 26 23 20 17 21 21 21 20 20 19 18 18 15 17 16 17 18 18 19 20 20 20 18 17 17 19 18 18 22 27 29 29 28 27 28 29 28 27 24 23 23 23 24
35 34 35 35 35 34 32 29 24 21 28 26 25 24 24 23 23 22 23 22 21 20 20 20 23 23 23 23 24 22 21 21 24 25 23 24 29 32 31 31 30 31 32 31 30 28 27 27 27
42 40 40 41 40 38 36 34 27 29 31 32 31 30 28 27 27 25 28 26 25 25 24 26 25 24 25 27 28 28 28 26 25 27 32 28 29 31 35 37 36 36 36 35 34 33 33 33 31
47 47 45 42 40 41 41 37 33 34 34 34 34 34 33 32 33 30 31 31 30 29 30 31 31 29 30 30 32 33 33 33 31 32 31 36 33 33 34 35 38 41 41 39 37 38 37 36 36
52 52 48 42 42 43 45 47 37 37 39 37 37 37 38 37 37 35 36 34 33 36 36 35 35 35 34 36 36 35 36 36 37 38 37 35 36 38 38 37 38 40 42 43 42 40 40 40 39
52 51 52 51 47 50 50 50 44 41 43 43 41 41 43 44 40 40 41 41 40 40 41 41 40 40 39 42 42 40 40 40 42 41 42 41 39 38 41 42 43 43 42 42 44 45 44 42 41
57 57 57 57 55 54 53 50 50 48 48 46 46 47 45 46 45 45 44 46 47 45 46 46 47 46 48 46 46 45 43 47 46 45 44 43 42 42 41 43 43 49 46 45 44 45 45 44 45
59 60 59 58 57 59 57 56 54 53 51 52 53 50 48 48 49 50 49 48 50 51 51 53 51 50 51 53 50 49 50 49 47 47 48 47 47 48 44 43 45 45 51 49 48 47 46 47 45
61 61 60 59 59 61 63 61 58 56 56 54 53 54 53 53 52 52 53 53 53 55 56 56 55 55 55 54 55 53 53 51 51 48 51 52 53 52 48 45 50 49 48 54 50 48 48 48 49
60 59 60 61 62 64 63 70 64 59 55 53 53 55 58 60 60 59 59 58 59 59 60 62 63 63 59 59 60 58 56 55 52 53 54 55 54 54 52 50 50 56 56 54 56 53 48 48 48
58 58 60 62 63 66 66 69 69 63 59 55 52 56 59 63 66 67 67 68 67 66 65 65 65 66 66 63 62 61 60 58 57 58 58 55 56 55 55 55 52 55 59 59 59 61 57 56 54
60 60 62 64 66 70 67 66 66 63 64 62 61 59 63 67 70 71 73 73 73 72 68 66 65 62 62 62 60 61 60 60 60 61 59 56 53 58 59 58 58 56 57 57 60 63 65 64 61
66 65 65 66 65 67 66 66 64 68 68 69 69 68 69 71 72 73 73 73 74 73 68 61 62 60 59 59 60 62 64 64 62 61 58 53 48 50 57 61 60 58 57 59 59 61 62 64 64
55 55 57 59 62 63 64 71 66 66 70 70 69 71 74 75 73 69 66 66 66 66 61 55 53 56 59 61 62 65 63 61 59 58 57 55 55 54 53 57 60 59 59 56 61 54 57 63 66
55 57 51 51 57 63 70 72 68 64 63 60 63 68 71 72 67 63 59 55 59 60 57 55 57 58 62 65 68 70 65 60 59 59 60 58 61 62 56 56 58 61 62 61 61 67 51 60 69
59 51 50 52 57 59 65 66 68 59 50 50 59 58 55 54 54 54 52 52 54 57 58 57 59 62 67 68 71 67 54 53 56 60 59 58 61 61 60 57 58 59 62 63 65 66 72 60 47
57 58 58 55 53 55 57 66 59 55 51 48 50 50 48 48 49 51 54 54 55 55 57 62 63 62 62 59 56 59 59 58 57 59 63 62 63 62 61 58 58 59 61 62 64 68 74 71 60
54 54 53 55 55 51 52 63 47 44 44 45 43 43 46 49 51 55 56 57 57 57 57 57 59 60 63 69 65 55 56 55 56 59 61 61 62 65 62 61 62 60 62 64 62 63 67 66 65
Wind_Direction
222 241 265 300 318 319 326 343 355 9 10 21 28 25 33 39 36 41 45 47 42 34 28 31 36 32 6 20 27 33 24 37 24 34 39 26 11 352 357 345 180 170 161 159 177 171 226 256 287
218 233 246 266 281 302 315 331 348 357 7 15 26 27 30 34 30 29 35 42 46 43 34 30 30 14 354 350 358 10 357 355 346 341 5 348 0 355 0 272 198 184 180 180 193 184 230 275 300
222 230 235 243 251 275 295 313 332 341 344 351 4 16 33 27 22 21 21 33 38 47 47 28 43 25 13 352 344 355 358 343 326 315 323 330 321 330 342 236 196 196 191 198 216 211 244 268 287
228 233 237 237 251 258 268 288 310 322 341 344 346 356 22 33 45 41 26 21 26 37 49 46 22 6 0 2 345 342 338 339 323 313 316 322 318 317 308 246 211 209 204 210 229 237 244 260 278
228 232 235 236 245 254 267 286 300 313 325 335 350 5 21 40 32 34 30 18 11 21 32 36 31 344 335 331 326 329 319 321 319 308 306 313 319 310 301 268 234 227 221 220 230 237 245 254 268
226 231 238 242 246 256 267 275 284 296 308 312 319 354 1 9 27 27 29 34 22 7 0 356 14 12 335 304 302 306 309 308 309 300 292 296 304 315 317 280 248 240 239 235 241 249 254 256 258
222 228 236 235 236 246 260 266 276 286 289 283 293 317 327 343 357 14 18 22 21 12 9 2 356 340 357 337 297 291 290 293 289 295 288 286 293 300 295 279 256 245 242 244 247 250 254 256 263
222 223 231 238 236 239 253 255 257 263 288 299 307 310 295 297 302 313 328 353 358 4 18 11 353 357 346 345 336 301 288 287 277 280 281 279 280 283 282 276 265 257 254 247 249 256 259 260 264
227 231 239 248 247 243 245 255 261 265 267 279 297 306 301 299 305 312 318 323 327 329 336 345 356 353 358 331 337 327 304 291 277 267 272 267 271 274 280 281 279 269 259 255 255 260 261 262 265
233 236 241 246 251 250 248 251 263 279 287 283 278 282 291 296 300 309 314 315 316 315 319 328 339 339 331 340 328 319 316 301 288 273 273 272 269 271 275 281 281 278 269 270 266 263 261 263 266
235 238 246 249 254 257 253 253 258 266 279 286 291 294 292 294 298 299 304 309 310 311 311 311 313 317 324 332 319 317 304 303 293 283 276 275 273 272 274 277 281 284 279 266 263 261 262 266 269
235 241 248 251 255 258 259 258 261 266 271 280 287 292 292 292 288 291 300 298 304 305 309 307 305 304 312 315 315 308 301 291 297 289 282 278 275 274 275 275 276 281 281 280 273 267 264 265 268
237 241 248 253 255 259 262 263 261 270 275 275 279 283 287 291 293 293 290 289 300 300 303 312 309 314 309 307 308 305 300 293 286 291 286 280 277 277 276 276 275 275 276 275 274 271 269 267 267
244 243 250 254 256 257 258 261 265 272 269 275 276 277 280 286 288 291 292 297 298 300 304 308 309 312 312 307 302 299 295 293 291 285 284 287 280 274 274 276 277 276 274 273 273 274 269 268 268
250 248 250 254 258 261 265 261 268 264 270 273 276 277 278 279 279 283 287 289 293 296 300 299 301 302 304 307 304 301 294 289 290 288 281 276 283 282 275 272 272 273 275 276 273 269 269 270 270
252 254 252 253 259 262 265 263 267 263 265 269 272 273 275 276 274 274 275 280 285 287 289 293 294 294 297 298 299 299 297 292 288 284 283 281 274 277 280 277 271 269 271 272 273 272 270 269 271
254 257 260 260 261 263 263 262 259 264 270 273 275 276 275 274 277 279 278 280 282 284 285 285 287 290 292 292 292 293 294 291 288 284 279 280 284 281 276 278 276 270 267 268 268 270 269 271 272
262 262 261 261 258 258 258 263 266 266 267 270 271 274 274 274 274 275 278 277 276 277 280 282 285 287 286 287 289 287 287 286 285 283 282 282 279 282 283 275 272 274 270 267 266 265 267 269 271
258 259 260 262 263 261 262 263 267 268 268 271 271 269 270 272 272 271 271 275 277 279 279 282 285 284 284 283 282 284 283 285 286 284 280 281 280 278 278 277 276 273 272 270 265 264 265 266 268
260 261 261 263 265 265 263 261 264 268 270 270 271 273 270 268 270 273 275 277 279 281 282 283 284 283 282 282 283 281 281 285 283 284 282 277 274 272 273 274 278 276 277 271 268 262 259 260 264
260 262 263 264 264 266 266 263 265 266 270 272 275 276 276 275 275 276 277 276 275 277 278 279 280 279 280 279 281 281 280 280 280 280 277 275 272 271 273 272 274 277 274 273 263 265 263 259 261
262 264 266 266 266 265 265 264 263 264 266 274 276 278 280 281 280 279 277 278 278 277 277 278 280 280 278 276 277 278 276 274 276 274 273 274 271 271 270 270 269 271 270 271 269 258 258 259 262
258 260 262 263 265 266 267 269 266 270 272 274 275 276 277 279 280 281 280 280 279 278 278 277 277 277 275 272 271 269 269 269 269 268 266 268 269 268 268 267 268 267 268 265 267 266 257 255 254
258 260 262 264 264 267 270 272 266 274 277 279 279 278 277 276 277 278 278 279 279 277 274 273 273 272 272 272 268 267 266 264 265 267 268 268 268 270 270 270 266 265 266 263 266 269 269 258 255
257 261 261 262 264 269 269 270 269 273 276 277 279 280 279 279 279 278 277 275 273 275 276 274 272 268 265 261 261 262 263 262 264 263 264 266 267 271 271 271 274 272 267 269 260 263 268 267 257
259 259 261 264 265 267 266 268 268 270 275 279 280 280 279 279 278 276 276 276 275 275 273 270 265 260 258 258 258 258 260 260 261 263 264 268 270 270 270 268 270 273 275 272 272 263 267 269 269
256 257 261 264 265 266 266 270 271 275 276 276 276 276 276 276 275 274 272 270 272 271 268 265 263 259 259 260 261 259 258 261 262 262 261 263 262 265 265 266 265 265 268 271 273 272 270 265 264
256 258 257 257 262 264 272 272 274 274 272 269 270 270 271 271 273 274 272 271 270 268 270 265 262 261 260 260 258 256 260 266 269 267 267 266 263 262 261 262 263 262 264 268 270 273 277 273 264
260 262 263 261 257 264 269 269 273 270 268 265 264 265 268 270 270 272 273 275 274 272 268 267 267 267 270 270 273 280 283 272 272 271 270 268 268 260 259 263 260 259 259 262 267 272 275 276 274
251 251 249 249 252 257 262 268 271 268 264 264 266 266 265 266 268 269 268 269 271 273 273 272 272 275 273 272 272 269 266 262 259 262 262 264 265 261 259 260 261 259 258 260 260 265 274 274 278
Height
5872 5873 5875 5877 5881 5880 5880 5882 5881 5881 5881 5881 5880 5880 5880 5878 5878 5880 5876 5874 5874 5875 5875 5875 5875 5876 5877 5877 5878 5878 5878 5878 5878 5878 5877 5876 5876 5877 5876 5876 5876 5877 5878 5879 5879 5880 5880 5880 5880
5869 5871 5873 5875 5878 5878 5879 5880 5881 5880 5881 5881 5880 5880 5879 5878 5878 5879 5878 5876 5875 5874 5875 5875 5877 5877 5877 5877 5878 5879 5879 5879 5879 5878 5878 5877 5877 5877 5877 5877 5877 5878 5878 5879 5879 5879 5879 5879 5880
5867 5869 5872 5873 5875 5876 5878 5879 5880 5880 5880 5881 5880 5880 5879 5879 5879 5879 5878 5877 5877 5875 5875 5876 5876 5877 5877 5878 5879 5879 5879 5879 5879 5879 5879 5878 5877 5877 5877 5878 5878 5878 5878 5878 5879 5879 5879 5879 5879
5865 5868 5870 5871 5872 5874 5876 5877 5879 5880 5880 5880 5880 5880 5880 5879 5878 5879 5878 5878 5877 5877 5875 5876 5877 5877 5878 5878 5878 5879 5879 5879 5879 5879 5879 5878 5877 5877 5877 5878 5878 5878 5878 5878 5878 5878 5878 5878 5878
5862 5864 5866 5868 5870 5872 5874 5876 5877 5878 5880 5880 5879 5879 5878 5878 5879 5878 5877 5878 5878 5878 5878 5877 5877 5877 5877 5877 5877 5877 5878 5878 5878 5878 5878 5878 5878 5877 5877 5877 5877 5878 5877 5877 5876 5876 5876 5877 5876
5859 5862 5864 5866 5867 5870 5872 5873 5874 5875 5878 5879 5879 5878 5877 5877 5877 5878 5877 5877 5877 5877 5877 5878 5878 5877 5876 5876 5877 5876 5876 5876 5877 5877 5877 5877 5878 5878 5877 5876 5876 5876 5876 5876 5875 5875 5875 5875 5875
5856 5858 5860 5863 5865 5867 5869 5871 5872 5873 5874 5876 5877 5878 5877 5875 5875 5875 5875 5876 5876 5876 5875 5876 5876 5877 5876 5875 5875 5875 5875 5875 5875 5876 5876 5876 5876 5877 5876 5875 5875 5874 5874 5874 5873 5873 5873 5873 5873
5853 5856 5857 5860 5863 5865 5866 5869 5870 5871 5872 5873 5875 5876 5876 5874 5873 5873 5873 5873 5874 5874 5873 5873 5872 5873 5873 5874 5873 5873 5873 5873 5873 5873 5874 5874 5874 5875 5874 5875 5874 5873 5873 5872 5871 5871 5871 5871 5870
5850 5853 5854 5856 5859 5862 5863 5865 5867 5869 5870 5871 5873 5873 5874 5872 5872 5871 5871 5871 5872 5871 5871 5871 5870 5869 5869 5870 5871 5872 5871 5871 5870 5870 5871 5871 5872 5872 5872 5872 5872 5871 5871 5870 5869 5868 5868 5868 5867
5847 5849 5850 5852 5855 5858 5860 5862 5864 5866 5867 5868 5868 5870 5871 5872 5871 5870 5870 5869 5869 5868 5868 5868 5867 5867 5867 5866 5867 5868 5869 5869 5868 5868 5868 5868 5869 5869 5869 5869 5868 5868 5867 5867 5867 5866 5865 5864 5863
5842 5845 5846 5848 5850 5854 5856 5858 5861 5862 5863 5864 5865 5866 5866 5868 5868 5869 5869 5868 5866 5865 5865 5865 5865 5866 5865 5862 5863 5863 5864 5866 5866 5866 5866 5866 5866 5866 5866 5866 5866 5865 5864 5862 5862 5863 5862 5861 5860
5837 5840 5840 5843 5845 5848 5851 5854 5857 5859 5859 5860 5861 5861 5862 5864 5864 5865 5865 5865 5864 5863 5863 5862 5862 5862 5862 5861 5860 5860 5859 5860 5862 5863 5863 5863 5863 5863 5862 5862 5862 5862 5861 5859 5858 5858 5857 5857 5857
5830 5834 5834 5836 5839 5842 5845 5849 5852 5855 5854 5855 5856 5857 5858 5859 5859 5859 5860 5860 5860 5860 5860 5860 5859 5859 5859 5859 5859 5858 5857 5856 5856 5857 5858 5859 5859 5859 5859 5858 5857 5856 5856 5855 5854 5853 5853 5852 5852
5822 5827 5828 5829 5831 5834 5838 5842 5848 5850 5846 5849 5851 5853 5853 5854 5854 5855 5855 5855 5855 5856 5856 5856 5855 5856 5856 5856 5855 5855 5854 5854 5853 5852 5851 5853 5854 5853 5854 5854 5853 5851 5850 5850 5850 5850 5848 5847 5846
5812 5819 5821 5822 5824 5827 5831 5835 5842 5842 5842 5843 5844 5846 5847 5848 5848 5849 5848 5849 5849 5850 5851 5851 5851 5851 5850 5850 5850 5850 5850 5850 5849 5847 5846 5845 5846 5847 5847 5847 5847 5845 5844 5844 5845 5844 5844 5842 5841
5801 5806 5811 5816 5819 5821 5824 5830 5834 5835 5835 5836 5836 5838 5839 5840 5840 5841 5841 5843 5843 5844 5843 5843 5844 5845 5845 5844 5843 5843 5843 5844 5844 5843 5840 5838 5836 5838 5839 5840 5840 5837 5836 5837 5837 5837 5837 5835 5834
5792 5796 5803 5810 5812 5814 5815 5816 5826 5826 5825 5828 5829 5830 5830 5832 5831 5833 5833 5836 5836 5835 5835 5836 5837 5838 5838 5837 5836 5836 5836 5835 5836 5835 5834 5832 5831 5829 5829 5831 5831 5829 5828 5828 5829 5829 5828 5828 5827
5787 5790 5792 5796 5803 5802 5805 5807 5813 5818 5817 5818 5821 5821 5820 5821 5824 5825 5824 5825 5826 5826 5826 5826 5827 5829 5829 5828 5828 5827 5827 5826 5825 5825 5825 5825 5824 5823 5821 5821 5821 5820 5820 5820 5820 5819 5818 5820 5819
5773 5777 5780 5784 5787 5791 5796 5801 5802 5806 5807 5809 5809 5810 5811 5810 5811 5812 5814 5814 5815 5816 5816 5817 5818 5819 5817 5818 5818 5819 5819 5816 5816 5816 5816 5817 5815 5814 5813 5812 5811 5810 5811 5809 5809 5809 5810 5809 5809
5765 5767 5770 5773 5776 5777 5782 5789 5792 5795 5798 5796 5796 5799 5799 5800 5800 5801 5804 5805 5805 5806 5806 5807 5808 5808 5808 5807 5809 5809 5809 5809 5808 5808 5808 5807 5804 5802 5802 5802 5801 5799 5798 5799 5798 5796 5797 5798 5798
5752 5756 5758 5761 5763 5766 5768 5776 5783 5784 5786 5788 5787 5783 5783 5786 5791 5793 5793 5793 5794 5794 5793 5794 5795 5795 5795 5796 5796 5797 5798 5798 5798 5798 5796 5794 5792 5791 5792 5791 5790 5789 5787 5786 5786 5787 5786 5787 5786
5741 5745 5745 5746 5747 5752 5756 5754 5768 5776 5779 5780 5775 5771 5768 5771 5773 5776 5779 5780 5780 5781 5780 5781 5781 5781 5782 5782 5782 5783 5784 5784 5785 5784 5783 5781 5781 5779 5780 5779 5778 5777 5777 5775 5774 5774 5775 5773 5775
5730 5731 5731 5731 5732 5735 5743 5744 5754 5763 5766 5767 5763 5757 5756 5757 5758 5760 5760 5761 5764 5765 5763 5764 5766 5766 5766 5767 5767 5767 5767 5768 5767 5767 5768 5767 5766 5766 5765 5766 5765 5766 5763 5762 5760 5761 5761 5759 5759
5718 5720 5720 5719 5718 5724 5730 5732 5753 5751 5746 5746 5743 5739 5748 5748 5748 5746 5745 5746 5747 5748 5747 5748 5749 5750 5751 5752 5753 5753 5754 5753 5754 5754 5754 5755 5755 5753 5752 5750 5752 5752 5753 5752 5749 5748 5749 5748 5746
5707 5708 5706 5704 5709 5716 5717 5717 5742 5735 5733 5730 5726 5731 5733 5732 5732 5729 5727 5728 5728 5729 5731 5732 5733 5734 5735 5736 5737 5738 5740 5741 5742 5741 5741 5740 5742 5742 5741 5738 5738 5739 5740 5741 5738 5735 5735 5736 5734
5696 5695 5694 5691 5696 5702 5704 5705 5728 5729 5722 5715 5714 5716 5715 5712 5711 5711 5710 5710 5711 5712 5713 5715 5718 5720 5721 5723 5723 5724 5725 5726 5727 5727 5728 5729 5730 5730 5728 5726 5726 5727 5727 5728 5725 5723 5723 5720 5720
5681 5680 5688 5682 5683 5680 5687 5697 5713 5720 5713 5701 5700 5699 5699 5698 5695 5694 5694 5695 5695 5697 5699 5701 5703 5706 5707 5708 5708 5708 5709 5709 5709 5709 5710 5711 5711 5713 5713 5712 5712 5713 5712 5713 5712 5708 5706 5705 5703
5666 5673 5672 5670 5668 5668 5675 5681 5695 5704 5695 5689 5686 5684 5686 5685 5683 5679 5680 5682 5683 5685 5685 5687 5689 5690 5690 5690 5691 5691 5692 5693 5694 5694 5694 5695 5696 5696 5697 5697 5698 5699 5699 5697 5696 5694 5692 5689 5690
5659 5659 5659 5657 5658 5657 5660 5666 5685 5684 5680 5676 5676 5675 5675 5674 5672 5671 5668 5669 5671 5672 5673 5673 5675 5676 5677 5677 5677 5675 5675 5678 5679 5680 5680 5681 5681 5680 5681 5681 5681 5683 5684 5683 5681 5679 5676 5676 5675
5643 5647 5644 5642 5646 5648 5649 5655 5672 5667 5666 5663 5664 5666 5665 5663 5662 5661 5660 5658 5658 5660 5661 5661 5661 5661 5662 5662 5662 5663 5664 5662 5663 5664 5665 5665 5667 5667 5666 5666 5667 5667 5667 5668 5667 5667 5663 5661 5659